[[{"header":{"parameterUnit":"m.s-1","parameterCategory":1,"la1":30.2991,"la2":30.254,"lo1":-89.0895,"lo2":-89.0444,"dy":0.0017,"dx":0.0017,"nx":28,"ny":28,"refTime":"2023-07-22T03:00:00:Z","depth":0,"parameterNumber":2,"parameterNumberName":"U-component_of_WINDS"},"data":[0,0,0,0,0,0,0,0,0,0,0,0,0,0,0,0,0,0,0,0,0,0,0,0,0,0,0,0,0,0,0,0,0,0,0,0,0,0,0,0,0,0,0,0,0,0,0,0,0,0,0,0,0,0,0,0,0,0,3.412,3.412,0,3.4102,3.4102,3.4102,3.399,3.3987,3.3984,3.3982,3.3966,3.3968,3.397,0,0,0,0,0,0,0,0,0,0,0,0,0,3.4057,3.4059,3.412,3.412,3.412,3.4102,3.4102,3.4102,3.399,3.3987,3.3984,3.3981,3.3965,3.3968,3.397,0,0,0,0,0,0,0,0,0,0,0,0,0,3.4067,3.4059,3.412,3.4062,3.4057,3.4102,3.4102,3.4102,3.3991,3.3987,3.3983,3.3979,3.3964,3.3967,3.3971,3.4072,0,0,3.398,3.3982,0,0,0,0,0,0,0,0,3.4066,3.4069,3.4071,3.4066,3.406,3.4044,3.4074,3.4092,3.3992,3.4016,3.3982,3.3977,3.3995,3.3996,3.4001,3.4071,3.407,3.3981,3.3982,3.3984,3.3985,0,0,0,0,0,0,0,3.4066,3.4069,3.4113,3.4071,3.4065,3.4036,3.4033,3.4077,3.4029,3.4014,3.4005,3.4005,3.3992,3.3999,3.4,3.407,3.398,3.3983,3.3985,3.3986,3.4215,3.4219,0,0,0,0,0,0,3.4073,3.4069,3.4114,3.4113,3.4053,3.4041,3.4037,3.4053,3.4028,3.402,3.4008,3.4,3.3995,3.3997,3.3999,3.4111,3.3984,3.3987,3.3989,3.4211,3.4216,3.422,0,0,0,0,0,0,3.4072,3.4078,3.4115,3.4089,3.4091,3.4046,3.4065,3.4055,3.4062,3.4024,3.4015,3.4024,3.3992,3.3995,3.4053,3.4109,3.3988,3.3991,3.4206,3.4212,3.4218,3.434,0,0,0,0,0,0,3.4071,3.4079,3.4117,3.409,3.4093,3.417,3.4069,3.4058,3.4067,3.4056,3.4036,3.4029,3.3989,3.4049,3.4056,3.4112,3.3993,3.4201,3.4209,3.4216,3.433,3.4349,3.4365,0,0,0,0,0,3.4069,3.4154,3.412,3.4126,3.414,3.4173,3.4174,3.4126,3.4073,3.411,3.4085,3.403,3.4102,3.4056,3.4063,3.412,3.4197,3.4206,3.4216,3.4322,3.4346,3.4365,0,0,0,0,0,0,3.4191,3.415,3.4111,3.419,3.4186,3.4154,3.42,3.4153,3.4164,3.4153,3.4092,3.4089,3.4155,3.4144,3.4092,3.4214,3.414,3.4151,3.4219,3.424,3.4257,3.4258,3.3996,0,0,0,0,0,3.4227,3.4257,3.4219,3.4292,3.4292,3.4247,3.4259,3.4221,3.4215,3.4213,3.4192,3.4188,3.4208,3.4224,3.4242,3.4328,3.432,3.4371,3.4388,3.4403,3.4413,3.4453,3.4473,3.4251,3.4251,3.4251,0,0,3.4302,3.4283,3.4306,3.4316,3.4308,3.4339,3.4246,3.4284,3.4306,3.4219,3.427,3.4255,3.4246,3.4317,3.4348,3.431,3.4472,3.4415,3.4427,3.4429,3.4464,3.4485,3.4504,3.4258,3.4256,3.4255,0,0,3.4454,3.4444,3.4501,3.4494,3.4481,3.445,3.4464,3.4438,3.4424,3.4475,3.4408,3.4433,3.4472,3.4467,3.4469,3.4613,3.4561,3.4621,3.4712,3.4751,3.4769,3.4784,3.4831,3.4849,3.4631,3.4631,3.4632,0,3.4549,3.4593,3.4537,3.4577,3.4582,3.4502,3.4558,3.4554,3.4549,3.4554,3.4511,3.4554,3.4543,3.4609,3.4644,3.465,3.4661,3.4622,3.4771,3.4785,3.4799,3.4843,3.4861,3.4638,3.4638,3.4637,3.4636,0,3.4707,3.4739,3.4786,3.478,3.479,3.4839,3.4789,3.4806,3.4766,3.4739,3.4789,3.4772,3.4783,3.4796,3.476,3.4856,3.4832,3.4781,3.4705,3.4828,3.4868,3.4885,3.4648,3.4646,3.4644,3.4642,0,0,3.4938,3.4896,3.4915,3.4908,3.4887,3.4909,3.4953,3.4961,3.4974,3.4973,3.5006,3.5038,3.4989,3.4992,3.4953,3.4988,3.5097,3.4932,3.4931,3.496,3.5197,3.5234,3.5255,3.5063,3.5066,3.5069,3.5197,0,3.508,3.515,3.5099,3.5178,3.5203,3.5125,3.5162,3.5152,3.5127,3.5144,3.5116,3.5138,3.5074,3.5074,3.5106,3.5078,3.5144,3.5068,3.5091,3.5093,3.5093,3.5276,3.5316,3.5438,3.5213,3.5215,3.5217,0,3.5256,3.5258,3.5339,3.5306,3.5315,3.5349,3.5349,3.5368,3.5354,3.5332,3.5333,3.5283,3.5321,3.5248,3.5297,3.5247,3.5253,3.524,3.5244,3.5242,3.5161,3.5277,3.5476,3.5493,3.5243,3.5241,3.5239,0,3.5411,3.5435,3.5484,3.5482,3.5447,3.5471,3.5458,3.5439,3.5446,3.5446,3.5449,3.5455,3.5458,3.5463,3.5416,3.5367,3.547,3.5394,3.5451,3.5452,3.5476,3.5474,3.5675,3.5485,3.5484,3.5484,3.5484,0,3.5574,3.5625,3.5552,3.5583,3.5637,3.5576,3.5631,3.561,3.5593,3.5617,3.5551,3.5574,3.5511,3.5528,3.5491,3.5535,3.5538,3.5521,3.551,3.5525,3.5527,3.5527,3.5516,3.5489,3.5488,3.5487,3.5486,0,3.5756,3.571,3.5758,3.5718,3.571,3.5751,3.5717,3.5742,3.5711,3.5741,3.5745,3.5696,3.5711,3.5664,3.5674,3.5648,3.5712,3.5689,3.5716,3.5708,3.5767,3.576,3.5973,3.5996,3.5794,3.5796,3.5797,0,3.5862,3.5899,3.5862,3.5871,3.5861,3.5879,3.5883,3.5824,3.5832,3.5815,3.5842,3.5851,3.5855,3.5883,3.5848,3.5854,3.5828,3.5902,3.5829,3.5841,3.5825,3.5822,3.5823,3.5917,3.592,3.5922,3.5923,0,3.6053,3.6026,3.6035,3.6035,3.6041,3.6038,3.6031,3.6043,3.598,3.5991,3.6004,3.6008,3.6014,3.6023,3.602,3.6005,3.5953,3.5947,3.5959,3.5974,3.5987,3.5977,3.5754,3.5942,3.594,3.5939,3.5938,3.5937,3.6198,3.6224,3.6201,3.6211,3.6198,3.6192,3.6212,3.6181,3.6191,3.619,3.6155,3.6175,3.6155,3.6144,3.6134,3.6148,3.6114,3.6134,3.6138,3.6143,3.6151,3.5986,3.6148,3.6147,3.6147,3.6146,3.6146,0,3.6382,3.6361,3.6371,3.6361,3.6368,3.6317,3.6304,3.6314,3.6331,3.6317,3.632,3.6333,3.6341,3.6305,3.6306,3.6324,3.6299,3.6326,3.6323,3.6319,3.6184,3.6171,3.6345,3.6345,3.6345,3.6345,3.6345,3.6345,3.6478,3.6519,3.6489,3.6522,3.6501,3.6518,3.6515,3.6508,3.6495,3.6511,3.6516,3.6492,3.6467,3.6466,3.6469,3.6458,3.646,3.6494,3.6475,3.6349,3.633,3.6311,3.6298,3.6496,3.6496,3.6608,3.6609,3.661]},{"header":{"parameterUnit":"m.s-1","parameterCategory":1,"la1":30.2991,"la2":30.254,"lo1":-89.0895,"lo2":-89.0444,"dy":0.0017,"dx":0.0017,"nx":28,"ny":28,"refTime":"2023-07-22T03:00:00:Z","depth":0,"parameterNumber":3,"parameterNumberName":"V-component_of_WINDS"},"data":[0,0,0,0,0,0,0,0,0,0,0,0,0,0,0,0,0,0,0,0,0,0,0,0,0,0,0,0,0,0,0,0,0,0,0,0,0,0,0,0,0,0,0,0,0,0,0,0,0,0,0,0,0,0,0,0,0,0,5.3346,5.3347,0,5.3421,5.3422,5.3423,5.3371,5.3369,5.3366,5.3364,5.3434,5.3438,5.3442,0,0,0,0,0,0,0,0,0,0,0,0,0,5.315,5.3154,5.3346,5.3347,5.3348,5.3421,5.3422,5.3423,5.3371,5.3369,5.3366,5.3363,5.3433,5.3438,5.3443,0,0,0,0,0,0,0,0,0,0,0,0,0,5.3231,5.3155,5.3346,5.3331,5.3331,5.3421,5.3422,5.3423,5.3372,5.3369,5.3365,5.3362,5.3431,5.3437,5.3443,5.355,0,0,5.3462,5.3464,0,0,0,0,0,0,0,0,5.3227,5.3238,5.3332,5.3332,5.3332,5.3383,5.3378,5.3465,5.3373,5.3356,5.3364,5.336,5.342,5.3426,5.3448,5.3553,5.3556,5.3462,5.3466,5.3468,5.347,0,0,0,0,0,0,0,5.3221,5.3235,5.3375,5.3334,5.3333,5.3318,5.3326,5.3395,5.3406,5.3357,5.3354,5.3364,5.3419,5.3442,5.3449,5.3557,5.3462,5.3467,5.3471,5.3474,5.375,5.3753,0,0,0,0,0,0,5.3218,5.323,5.3373,5.3378,5.327,5.3325,5.3333,5.337,5.3405,5.3408,5.3367,5.3361,5.3434,5.3442,5.3451,5.3576,5.3468,5.3474,5.3478,5.3746,5.375,5.3755,0,0,0,0,0,0,5.3214,5.3231,5.337,5.3303,5.332,5.3332,5.3374,5.3373,5.3397,5.3413,5.3413,5.3389,5.3431,5.3443,5.3525,5.3578,5.3477,5.3482,5.3742,5.3747,5.3753,5.3828,0,0,0,0,0,0,5.3208,5.323,5.3272,5.3305,5.3324,5.3445,5.3377,5.3377,5.3408,5.3402,5.3434,5.3436,5.3429,5.3517,5.3531,5.3584,5.3487,5.3737,5.3744,5.3751,5.382,5.3835,5.3848,0,0,0,0,0,5.3202,5.329,5.3275,5.3292,5.3377,5.3449,5.3459,5.3452,5.3413,5.3454,5.3464,5.3435,5.357,5.3526,5.3542,5.3597,5.3733,5.3742,5.375,5.3814,5.3832,5.3847,0,0,0,0,0,0,5.3261,5.3294,5.3278,5.338,5.3412,5.344,5.3492,5.3472,5.3514,5.3506,5.3493,5.3501,5.3587,5.36,5.355,5.37,5.3645,5.3657,5.3688,5.3706,5.3719,5.3713,5.3492,0,0,0,0,0,5.3287,5.3345,5.3369,5.3456,5.3473,5.348,5.3511,5.3503,5.3535,5.3547,5.3563,5.3593,5.3642,5.3675,5.3721,5.3823,5.3827,5.3868,5.3882,5.3893,5.3903,5.3954,5.3972,5.3782,5.3782,5.3782,0,0,5.3339,5.3364,5.3401,5.3469,5.3493,5.355,5.3492,5.3555,5.3596,5.3556,5.3635,5.3648,5.368,5.3772,5.3813,5.3786,5.3957,5.3904,5.3913,5.3916,5.3965,5.3983,5.3999,5.3788,5.3787,5.3786,0,0,5.3463,5.349,5.3564,5.3589,5.3627,5.3631,5.3649,5.368,5.3687,5.3767,5.3737,5.3785,5.387,5.3894,5.3917,5.4049,5.4023,5.4065,5.4134,5.4185,5.42,5.4213,5.4257,5.4274,5.4075,5.4075,5.4075,0,5.3523,5.361,5.3604,5.3669,5.3698,5.3667,5.374,5.3765,5.3815,5.3834,5.3804,5.3909,5.3929,5.4025,5.4057,5.4078,5.4095,5.406,5.4199,5.4212,5.4224,5.4266,5.4283,5.4079,5.4079,5.4078,5.4078,0,5.368,5.3741,5.3796,5.3847,5.3882,5.3951,5.3953,5.3989,5.3978,5.3984,5.4063,5.4086,5.4135,5.4157,5.4147,5.4251,5.4232,5.4201,5.4144,5.4247,5.4286,5.4302,5.4086,5.4084,5.4083,5.4082,0,0,5.3843,5.389,5.391,5.3931,5.3971,5.4016,5.4082,5.4132,5.4162,5.4197,5.425,5.4323,5.4294,5.432,5.4311,5.4356,5.4455,5.4318,5.4319,5.4341,5.4568,5.459,5.4609,5.4439,5.4442,5.4445,5.4564,0,5.3967,5.4085,5.4081,5.4189,5.4243,5.4214,5.4271,5.43,5.4307,5.4351,5.4358,5.4409,5.4368,5.4383,5.4426,5.4434,5.45,5.4426,5.4485,5.4487,5.4476,5.463,5.4654,5.4766,5.458,5.4583,5.4584,0,5.4128,5.417,5.4285,5.4314,5.4336,5.4388,5.4432,5.4477,5.4507,5.4509,5.4538,5.4522,5.4586,5.453,5.4616,5.4565,5.4589,5.4596,5.46,5.4604,5.454,5.4635,5.4801,5.4817,5.4609,5.4607,5.4605,0,5.4232,5.4317,5.4396,5.4416,5.4453,5.4489,5.4506,5.4534,5.4563,5.4601,5.4619,5.4664,5.4688,5.4721,5.4716,5.4676,5.4802,5.4747,5.4803,5.4803,5.4829,5.4827,5.4999,5.4849,5.4849,5.4848,5.4848,0,5.4369,5.444,5.4443,5.4492,5.4568,5.4562,5.4637,5.465,5.4674,5.4722,5.4699,5.4744,5.4736,5.478,5.4776,5.4846,5.4858,5.4859,5.4856,5.486,5.4859,5.4873,5.4864,5.4853,5.4852,5.4851,5.485,0,5.4497,5.4503,5.4587,5.4615,5.4624,5.4679,5.4702,5.4746,5.4751,5.4812,5.4826,5.4833,5.4884,5.4883,5.494,5.4937,5.5022,5.5013,5.5013,5.501,5.5065,5.5059,5.525,5.5274,5.5111,5.5112,5.5114,0,5.4584,5.4637,5.4672,5.4703,5.4723,5.4774,5.4804,5.4799,5.4831,5.4869,5.4908,5.4957,5.4995,5.5077,5.5086,5.5129,5.5118,5.5182,5.5124,5.5124,5.5115,5.5111,5.5115,5.5192,5.5194,5.5196,5.5197,0,5.4735,5.4735,5.4781,5.4828,5.4865,5.4901,5.4934,5.496,5.4958,5.4995,5.5048,5.5078,5.5136,5.5184,5.5225,5.5239,5.5217,5.5216,5.523,5.5233,5.523,5.5229,5.5041,5.5211,5.5209,5.5208,5.5208,5.5207,5.4843,5.4888,5.4919,5.497,5.4995,5.5026,5.5069,5.508,5.5124,5.5173,5.5167,5.5224,5.5251,5.5304,5.5322,5.5365,5.5342,5.5364,5.5369,5.5374,5.5379,5.5225,5.5373,5.5372,5.5372,5.5372,5.5371,0,5.499,5.5009,5.5056,5.5104,5.5143,5.5122,5.5157,5.5191,5.5243,5.5271,5.5309,5.5368,5.5414,5.5427,5.547,5.5502,5.5493,5.5513,5.5509,5.5512,5.5399,5.538,5.552,5.552,5.552,5.552,5.552,5.552,5.5071,5.5146,5.515,5.5236,5.5253,5.5311,5.5333,5.536,5.5382,5.545,5.5488,5.5497,5.5518,5.5563,5.5603,5.5605,5.5621,5.5645,5.5643,5.5536,5.5521,5.5507,5.5489,5.5649,5.565,5.5753,5.5754,5.5755]}]]